Philadelphia Wings Airport, PA

7:09 AM EDT on October 21, 2019 (GMT -0400)
Philadelphia Wings Airport

Weather History for KLOM - August, 2019

Change the Weather History Date:

Friday, August 30, 2019

  Actual Average (WUND) Record (WUND)
Temperature  
Mean Temperature 69 °F -  
Max Temperature 86 °F - - (-1)
Min Temperature 52 °F - - (-1)
Cooling Degree Days 4    
Growing Degree Days 19 (Base 50)    
Moisture  
Dew Point 59 °F    
Average Humidity 70    
Maximum Humidity 100    
Minimum Humidity 44    
Precipitation  
Precipitation 0.00 in - - ()
Sea Level Pressure  
Sea Level Pressure 30.05 in    
Wind  
Wind Speed 3 mph (WSW)    
Max Wind Speed 13 mph    
Max Gust Speed 18 mph    
Visibility 9 miles    
Events      
Averages and records for this station are not official NWS values.
T = Trace of Precipitation, MM = Missing Value Source: NWS Daily Summary

Daily Weather History Graph

Daily Weather History Graph

Search for Another Location

Airport or City:

Astronomy

Aug. 30, 2019 Rise Set
Actual Time 6:26 AM EDT 7:36 PM EDT
Civil Twilight 5:58 AM EDT 8:04 PM EDT
Nautical Twilight 5:25 AM EDT 8:37 PM EDT
Astronomical Twilight 4:50 AM EDT 9:12 PM EDT
Moon 6:24 AM EDT (8/30) 8:11 PM EDT (8/30)
Length of Visible Light 14h 05m
Length of Day
13h 09m
New Moon, 0% of the Moon is Illuminated
Aug 30
New Moon
Sep 5
First Quarter
Sep 14
Full
Sep 21
Last Quarter
Sep 28
New

Hourly Weather History & Observations

Time (EDT) Temp. Heat Index Dew Point Humidity Pressure Visibility Wind Dir Wind Speed Gust Speed Precip Events Conditions
12:15 AM 56.5 °F - 55.8 °F 97% 30.03 in 10.0 mi Calm Calm - N/A   Clear
12:35 AM 55.9 °F - 54.7 °F 96% 30.03 in 10.0 mi Calm Calm - N/A   Clear
12:55 AM 55.9 °F - 54.7 °F 96% 30.03 in 10.0 mi Calm Calm - N/A   Clear
1:15 AM 56.3 °F - 56.1 °F 99% 30.03 in 10.0 mi Calm Calm - N/A   Clear
1:35 AM 55.2 °F - 54.5 °F 97% 30.03 in 10.0 mi Calm Calm - N/A   Clear
1:55 AM 54.9 °F - 54.1 °F 97% 30.03 in 10.0 mi Calm Calm - N/A   Clear
2:15 AM 54.5 °F - 54.0 °F 98% 30.03 in 10.0 mi Calm Calm - N/A   Clear
2:35 AM 54.1 °F - 52.9 °F 95% 30.03 in 10.0 mi Calm Calm - N/A   Clear
2:55 AM 54.0 °F - 53.6 °F 99% 30.03 in 10.0 mi Calm Calm - N/A   Clear
3:15 AM 54.3 °F - 53.8 °F 98% 30.03 in 10.0 mi Calm Calm - N/A   Clear
3:35 AM 53.4 °F - 52.3 °F 96% 30.03 in 10.0 mi Calm Calm - N/A   Clear
3:55 AM 53.2 °F - 52.7 °F 98% 30.03 in 2.0 mi Calm Calm - N/A   Clear
4:15 AM 53.4 °F - 53.2 °F 99% 30.03 in 1.5 mi Calm Calm - N/A   Mist
4:35 AM 54.1 °F - 54.1 °F 100% 30.03 in 5.0 mi Calm Calm - N/A   Clear
4:55 AM 53.2 °F - 53.1 °F 99% 30.04 in 10.0 mi Calm Calm - N/A   Clear
5:15 AM 53.4 °F - 53.2 °F 99% 30.04 in 10.0 mi Calm Calm - N/A   Clear
5:35 AM 53.8 °F - 53.4 °F 99% 30.04 in 10.0 mi Calm Calm - N/A   Clear
5:55 AM 53.8 °F - 53.6 °F 99% 30.04 in 5.0 mi Calm Calm - N/A   Clear
6:15 AM 53.1 °F - 52.7 °F 99% 30.05 in 7.0 mi Calm Calm - N/A   Clear
6:35 AM 52.5 °F - 52.0 °F 98% 30.05 in 3.0 mi Calm Calm - N/A   Clear
6:55 AM 54.1 °F - 54.0 °F 99% 30.05 in 7.0 mi Calm Calm - N/A   Clear
7:15 AM 56.1 °F - 55.9 °F 99% 30.06 in 7.0 mi Calm Calm - N/A   Clear
7:35 AM 59.0 °F - 58.6 °F 99% 30.06 in 10.0 mi Calm Calm - N/A   Clear
7:55 AM 64.8 °F - 60.1 °F 85% 30.06 in 10.0 mi Calm Calm - N/A   Clear
8:15 AM 67.5 °F - 60.3 °F 78% 30.06 in 10.0 mi Calm Calm - N/A   Clear
8:35 AM 70.0 °F - 61.0 °F 73% 30.07 in 10.0 mi Calm Calm - N/A   Clear
8:55 AM 72.1 °F - 60.6 °F 67% 30.06 in 10.0 mi Calm Calm - N/A   Clear
9:15 AM 73.9 °F - 59.5 °F 61% 30.07 in 10.0 mi WSW 4.6 mph - N/A   Clear
9:35 AM 74.8 °F - 59.2 °F 58% 30.06 in 10.0 mi SW 6.9 mph - N/A   Clear
9:55 AM 76.5 °F - 59.4 °F 55% 30.07 in 10.0 mi WSW 5.8 mph - N/A   Clear
10:15 AM 77.7 °F - 59.0 °F 52% 30.07 in 10.0 mi West 8.1 mph - N/A   Clear
10:35 AM 78.6 °F - 58.6 °F 50% 30.07 in 10.0 mi West 6.9 mph - N/A   Mostly Cloudy
10:55 AM 79.9 °F - 59.4 °F 49% 30.07 in 10.0 mi West 8.1 mph - N/A   Scattered Clouds
11:15 AM 80.8 °F 81.3 °F 59.5 °F 48% 30.07 in 10.0 mi WSW 9.2 mph - N/A   Scattered Clouds
11:35 AM 82.4 °F 82.9 °F 60.8 °F 48% 30.06 in 10.0 mi SSW 11.5 mph - N/A   Scattered Clouds
11:55 AM 82.0 °F 82.5 °F 60.8 °F 48% 30.06 in 10.0 mi SSW 10.4 mph 17.3 mph N/A   Clear
12:15 PM 82.8 °F 83.3 °F 61.0 °F 48% 30.05 in 10.0 mi SW 9.2 mph - N/A   Scattered Clouds
12:55 PM 84.2 °F 84.4 °F 60.8 °F 45% 30.05 in 10.0 mi WSW 12.7 mph - N/A   Clear
1:15 PM 83.7 °F 84.3 °F 62.1 °F 48% 30.04 in 10.0 mi West 6.9 mph - N/A   Clear
1:35 PM 84.4 °F 85.0 °F 62.2 °F 47% 30.04 in 10.0 mi WSW 9.2 mph 18.4 mph N/A   Clear
1:55 PM 85.1 °F 85.9 °F 63.0 °F 47% 30.04 in 10.0 mi West 6.9 mph - N/A   Clear
2:15 PM 84.4 °F 85.0 °F 62.2 °F 47% 30.03 in 10.0 mi West 5.8 mph - N/A   Clear
2:35 PM 85.3 °F 85.7 °F 61.7 °F 45% 30.02 in 10.0 mi WSW 6.9 mph - N/A   Clear
2:55 PM 85.8 °F 86.1 °F 61.9 °F 44% 30.02 in 10.0 mi SW 11.5 mph 17.3 mph N/A   Clear
3:15 PM 86.2 °F 86.6 °F 62.1 °F 44% 30.02 in 10.0 mi SW 11.5 mph - N/A   Clear
3:35 PM 85.5 °F 86.1 °F 62.2 °F 46% 30.02 in 10.0 mi SW 8.1 mph - N/A   Scattered Clouds
3:55 PM 84.7 °F 85.2 °F 61.7 °F 46% 30.02 in 10.0 mi West 5.8 mph - N/A   Scattered Clouds
4:15 PM 84.2 °F 84.8 °F 62.1 °F 47% 30.02 in 10.0 mi West 8.1 mph - N/A   Mostly Cloudy
4:35 PM 85.3 °F 86.1 °F 63.1 °F 47% 30.01 in 10.0 mi WSW 8.1 mph - N/A   Scattered Clouds
4:55 PM 84.0 °F 84.7 °F 62.2 °F 48% 30.02 in 10.0 mi SW 6.9 mph - N/A   Mostly Cloudy
5:15 PM 83.7 °F 84.3 °F 62.1 °F 48% 30.02 in 10.0 mi WSW 6.9 mph - N/A   Overcast
5:35 PM 83.1 °F 83.9 °F 62.1 °F 49% 30.02 in 10.0 mi SW 9.2 mph - N/A   Overcast
5:55 PM 83.1 °F 83.9 °F 62.2 °F 49% 30.02 in 10.0 mi SW 8.1 mph - N/A   Overcast
6:15 PM 82.9 °F 83.7 °F 62.2 °F 49% 30.03 in 10.0 mi SW 8.1 mph - N/A   Scattered Clouds
6:35 PM 82.9 °F 83.8 °F 62.4 °F 50% 30.03 in 10.0 mi SW 10.4 mph - N/A   Scattered Clouds
6:55 PM 82.8 °F 83.6 °F 62.4 °F 50% 30.03 in 10.0 mi WSW 6.9 mph - N/A   Mostly Cloudy
7:15 PM 81.9 °F 82.9 °F 62.6 °F 52% 30.03 in 10.0 mi West 5.8 mph - N/A   Mostly Cloudy
7:35 PM 81.5 °F 82.7 °F 62.6 °F 53% 30.04 in 10.0 mi SW 5.8 mph - N/A   Overcast
7:55 PM 80.4 °F 81.6 °F 62.6 °F 54% 30.04 in 10.0 mi SW 5.8 mph - N/A   Mostly Cloudy
8:15 PM 78.6 °F - 63.0 °F 59% 30.05 in 10.0 mi SSW 5.8 mph - N/A   Mostly Cloudy
8:35 PM 78.3 °F - 62.8 °F 59% 30.05 in 10.0 mi SW 5.8 mph - N/A   Mostly Cloudy
8:55 PM 76.1 °F - 63.5 °F 65% 30.07 in 10.0 mi SW 3.5 mph - N/A   Scattered Clouds
9:15 PM 76.6 °F - 62.4 °F 61% 30.07 in 10.0 mi WSW 4.6 mph - N/A   Clear
9:35 PM 75.2 °F - 63.1 °F 66% 30.08 in 10.0 mi SW 4.6 mph - N/A   Clear
9:55 PM 75.2 °F - 62.2 °F 64% 30.09 in 10.0 mi WSW 4.6 mph - N/A   Clear
10:15 PM 75.0 °F - 62.1 °F 64% 30.09 in 10.0 mi WSW 3.5 mph - N/A   Clear
10:35 PM 75.4 °F - 61.2 °F 61% 30.09 in 10.0 mi WSW 4.6 mph - N/A   Clear
10:55 PM 70.5 °F - 63.1 °F 77% 30.10 in 10.0 mi Calm Calm - N/A   Clear
11:15 PM 66.7 °F - 64.2 °F 92% 30.10 in 10.0 mi Calm Calm - N/A   Clear
11:35 PM 65.5 °F - 63.5 °F 93% 30.10 in 10.0 mi Calm Calm - N/A   Scattered Clouds
11:55 PM 66.2 °F - 64.4 °F 94% 30.10 in 10.0 mi Calm Calm - N/A   Scattered Clouds